Time,TemperatureF,DewpointF,PressureIn,WindDirection,WindDirectionDegrees,WindSpeedMPH,WindSpeedGustMPH,Humidity,HourlyPrecipIn,Conditions,Clouds,dailyrainin,SoftwareType,DateUTC
2013-01-26 09:35:00,60.4,57.5,30.25,WSW,254,0.0,5.0,90,0.00,,,0.00,Wunderground v.1.15,2013-01-26 14:35:00,
2013-01-26 09:40:00,61.2,57.3,30.25,WSW,254,0.0,5.0,87,0.00,,,0.00,Wunderground v.1.15,2013-01-26 14:40:00,
2013-01-26 09:50:00,63.2,58.6,30.25,WSW,254,0.0,5.0,85,0.00,,,0.00,Wunderground v.1.15,2013-01-26 14:50:00,
2013-01-26 09:55:00,63.6,58.3,30.26,WSW,254,0.0,5.0,83,0.00,,,0.00,Wunderground v.1.15,2013-01-26 14:55:00,
2013-01-26 10:00:00,64.0,58.4,30.26,WSW,254,0.0,5.0,82,0.00,,,0.00,Wunderground v.1.15,2013-01-26 15:00:00,
2013-01-26 10:05:00,65.1,59.1,30.26,WSW,254,0.0,5.0,81,0.00,,,0.00,Wunderground v.1.15,2013-01-26 15:05:00,
2013-01-26 10:15:00,66.6,58.8,30.26,West,278,1.0,5.0,76,0.00,,,0.00,Wunderground v.1.15,2013-01-26 15:15:00,
2013-01-26 10:20:00,67.1,58.9,30.26,West,261,1.0,5.0,75,0.00,,,0.00,Wunderground v.1.15,2013-01-26 15:20:00,
2013-01-26 10:25:00,67.7,59.1,30.26,West,263,1.0,5.0,74,0.00,,,0.00,Wunderground v.1.15,2013-01-26 15:25:00,
2013-01-26 10:30:00,67.6,58.6,30.25,West,279,2.0,5.0,73,0.00,,,0.00,Wunderground v.1.15,2013-01-26 15:30:00,
2013-01-26 10:35:00,67.9,59.3,30.25,WNW,282,2.0,5.0,74,0.00,,,0.00,Wunderground v.1.15,2013-01-26 15:35:00,
2013-01-26 10:40:00,68.0,58.2,30.25,SW,220,1.0,5.0,71,0.00,,,0.00,Wunderground v.1.15,2013-01-26 15:40:00,
2013-01-26 10:45:00,68.2,59.6,30.25,WSW,244,1.0,5.0,74,0.00,,,0.00,Wunderground v.1.15,2013-01-26 15:45:00,
2013-01-26 10:55:00,68.9,59.1,30.25,SW,217,2.0,6.0,71,0.00,,,0.00,Wunderground v.1.15,2013-01-26 15:55:00,
2013-01-26 11:00:00,69.4,58.8,30.25,WNW,299,2.0,2.0,69,0.00,,,0.00,Wunderground v.1.15,2013-01-26 16:00:00,
2013-01-26 11:05:00,70.0,59.4,30.25,West,275,1.0,3.0,69,0.00,,,0.00,Wunderground v.1.15,2013-01-26 16:05:00,
2013-01-26 11:10:00,69.9,58.9,30.25,WNW,294,1.0,1.0,68,0.00,,,0.00,Wunderground v.1.15,2013-01-26 16:10:00,
2013-01-26 11:15:00,70.6,59.5,30.25,NNW,336,1.0,5.0,68,0.00,,,0.00,Wunderground v.1.15,2013-01-26 16:15:00,
2013-01-26 11:20:00,70.3,58.4,30.25,NW,311,1.0,1.0,66,0.00,,,0.00,Wunderground v.1.15,2013-01-26 16:20:00,
2013-01-26 11:25:00,70.7,59.6,30.24,WSW,253,1.0,5.0,68,0.00,,,0.00,Wunderground v.1.15,2013-01-26 16:25:00,
2013-01-26 11:30:00,71.0,59.1,30.24,West,263,1.0,5.0,66,0.00,,,0.00,Wunderground v.1.15,2013-01-26 16:30:00,
2013-01-26 11:35:00,71.0,59.1,30.24,West,275,1.0,5.0,66,0.00,,,0.00,Wunderground v.1.15,2013-01-26 16:35:00,
2013-01-26 12:05:00,71.9,58.2,30.23,WNW,302,0.0,0.0,62,0.00,,,0.00,Wunderground v.1.15,2013-01-26 17:05:00,
2013-01-26 12:10:00,71.8,58.5,30.23,WSW,255,1.0,1.0,63,0.00,,,0.00,Wunderground v.1.15,2013-01-26 17:10:00,
2013-01-26 12:20:00,71.8,56.7,30.22,North,355,1.0,1.0,59,0.00,,,0.00,Wunderground v.1.15,2013-01-26 17:20:00,
2013-01-26 12:25:00,72.9,58.2,30.22,WSW,255,0.0,0.0,60,0.00,,,0.00,Wunderground v.1.15,2013-01-26 17:25:00,
2013-01-26 12:30:00,72.7,58.5,30.22,WSW,258,1.0,1.0,61,0.00,,,0.00,Wunderground v.1.15,2013-01-26 17:30:00,
2013-01-26 12:35:00,72.6,57.9,30.21,West,265,0.0,4.0,60,0.00,,,0.00,Wunderground v.1.15,2013-01-26 17:35:00,
2013-01-26 12:45:00,71.9,56.8,30.21,West,264,1.0,1.0,59,0.00,,,0.00,Wunderground v.1.15,2013-01-26 17:45:00,
2013-01-26 12:55:00,72.8,57.6,30.20,SSW,200,1.0,1.0,59,0.00,,,0.00,Wunderground v.1.15,2013-01-26 17:55:00,
2013-01-26 13:00:00,73.8,58.1,30.20,West,273,1.0,1.0,58,0.00,,,0.00,Wunderground v.1.15,2013-01-26 18:00:00,
2013-01-26 13:05:00,73.2,58.0,30.20,West,265,2.0,2.0,59,0.00,,,0.00,Wunderground v.1.15,2013-01-26 18:05:00,
2013-01-26 13:10:00,72.9,58.7,30.19,WNW,294,2.0,2.0,61,0.00,,,0.00,Wunderground v.1.15,2013-01-26 18:10:00,
2013-01-26 13:15:00,73.3,57.6,30.19,North,355,2.0,3.0,58,0.00,,,0.00,Wunderground v.1.15,2013-01-26 18:15:00,
2013-01-26 13:20:00,72.7,58.5,30.19,NNW,329,2.0,2.0,61,0.00,,,0.00,Wunderground v.1.15,2013-01-26 18:20:00,
2013-01-26 13:25:00,73.3,58.1,30.18,North,355,2.0,5.0,59,0.00,,,0.00,Wunderground v.1.15,2013-01-26 18:25:00,
2013-01-26 13:30:00,73.0,58.3,30.18,West,281,2.0,2.0,60,0.00,,,0.00,Wunderground v.1.15,2013-01-26 18:30:00,
2013-01-26 13:40:00,74.6,58.4,30.17,West,269,1.0,5.0,57,0.00,,,0.00,Wunderground v.1.15,2013-01-26 18:40:00,
2013-01-26 13:45:00,74.6,57.4,30.17,NNW,340,1.0,5.0,55,0.00,,,0.00,Wunderground v.1.15,2013-01-26 18:45:00,
2013-01-26 13:50:00,74.4,57.7,30.16,North,350,1.0,5.0,56,0.00,,,0.00,Wunderground v.1.15,2013-01-26 18:50:00,
2013-01-26 13:55:00,74.1,57.9,30.16,North,355,1.0,5.0,57,0.00,,,0.00,Wunderground v.1.15,2013-01-26 18:55:00,
2013-01-26 14:05:00,75.3,58.5,30.16,WNW,290,1.0,5.0,56,0.00,,,0.00,Wunderground v.1.15,2013-01-26 19:05:00,
2013-01-26 14:10:00,74.2,58.0,30.16,NNW,343,0.0,5.0,57,0.00,,,0.00,Wunderground v.1.15,2013-01-26 19:10:00,
2013-01-26 14:15:00,74.6,58.4,30.16,NW,313,0.0,5.0,57,0.00,,,0.00,Wunderground v.1.15,2013-01-26 19:15:00,
2013-01-26 14:20:00,75.5,58.2,30.16,NW,306,0.0,5.0,55,0.00,,,0.00,Wunderground v.1.15,2013-01-26 19:20:00,
2013-01-26 14:25:00,75.2,57.4,30.16,SW,233,1.0,5.0,54,0.00,,,0.00,Wunderground v.1.15,2013-01-26 19:25:00,
2013-01-26 14:35:00,74.9,57.6,30.16,West,272,1.0,5.0,55,0.00,,,0.00,Wunderground v.1.15,2013-01-26 19:35:00,
2013-01-26 14:45:00,74.2,56.0,30.15,WSW,242,1.0,5.0,53,0.00,,,0.00,Wunderground v.1.15,2013-01-26 19:45:00,
2013-01-26 14:50:00,75.0,56.2,30.15,WSW,252,0.0,5.0,52,0.00,,,0.00,Wunderground v.1.15,2013-01-26 19:50:00,
2013-01-26 14:55:00,74.8,57.0,30.14,WSW,252,0.0,5.0,54,0.00,,,0.00,Wunderground v.1.15,2013-01-26 19:55:00,
2013-01-26 15:00:00,75.0,56.7,30.14,WSW,252,0.0,5.0,53,0.00,,,0.00,Wunderground v.1.15,2013-01-26 20:00:00,
2013-01-26 15:10:00,74.9,57.6,30.14,SW,222,0.0,5.0,55,0.00,,,0.00,Wunderground v.1.15,2013-01-26 20:10:00,
2013-01-26 15:15:00,75.0,57.2,30.14,West,267,1.0,5.0,54,0.00,,,0.00,Wunderground v.1.15,2013-01-26 20:15:00,
2013-01-26 15:20:00,74.5,57.3,30.14,WSW,256,1.0,5.0,55,0.00,,,0.00,Wunderground v.1.15,2013-01-26 20:20:00,
2013-01-26 15:25:00,75.0,58.2,30.14,West,275,1.0,5.0,56,0.00,,,0.00,Wunderground v.1.15,2013-01-26 20:25:00,
2013-01-26 15:30:00,74.7,57.5,30.14,West,272,1.0,5.0,55,0.00,,,0.00,Wunderground v.1.15,2013-01-26 20:30:00,
2013-01-26 15:35:00,74.3,57.1,30.14,West,263,1.0,5.0,55,0.00,,,0.00,Wunderground v.1.15,2013-01-26 20:35:00,
2013-01-26 15:45:00,75.1,57.3,30.14,WSW,250,0.0,5.0,54,0.00,,,0.00,Wunderground v.1.15,2013-01-26 20:45:00,
2013-01-26 15:50:00,74.7,57.5,30.14,West,279,0.0,5.0,55,0.00,,,0.00,Wunderground v.1.15,2013-01-26 20:50:00,
2013-01-26 16:00:00,74.8,57.5,30.14,NNW,347,0.0,5.0,55,0.00,,,0.00,Wunderground v.1.15,2013-01-26 21:00:00,
2013-01-26 16:05:00,74.8,56.5,30.14,NW,306,0.0,5.0,53,0.00,,,0.00,Wunderground v.1.15,2013-01-26 21:05:00,
2013-01-26 16:10:00,74.3,57.1,30.14,WNW,284,0.0,5.0,55,0.00,,,0.00,Wunderground v.1.15,2013-01-26 21:10:00,
2013-01-26 16:15:00,74.3,57.6,30.14,WNW,284,0.0,5.0,56,0.00,,,0.00,Wunderground v.1.15,2013-01-26 21:15:00,
2013-01-26 16:20:00,74.5,57.8,30.14,WNW,284,0.0,5.0,56,0.00,,,0.00,Wunderground v.1.15,2013-01-26 21:20:00,
2013-01-26 16:25:00,74.4,57.7,30.15,West,277,0.0,5.0,56,0.00,,,0.00,Wunderground v.1.15,2013-01-26 21:25:00,
2013-01-26 16:30:00,73.9,57.2,30.15,WSW,251,0.0,5.0,56,0.00,,,0.00,Wunderground v.1.15,2013-01-26 21:30:00,
2013-01-26 16:35:00,73.6,57.9,30.14,West,266,0.0,5.0,58,0.00,,,0.00,Wunderground v.1.15,2013-01-26 21:35:00,
2013-01-26 16:40:00,73.6,57.9,30.15,West,266,0.0,5.0,58,0.00,,,0.00,Wunderground v.1.15,2013-01-26 21:40:00,
2013-01-26 16:50:00,73.3,57.1,30.15,WSW,238,0.0,5.0,57,0.00,,,0.00,Wunderground v.1.15,2013-01-26 21:50:00,
2013-01-26 16:55:00,73.3,57.1,30.15,West,264,1.0,5.0,57,0.00,,,0.00,Wunderground v.1.15,2013-01-26 21:55:00,
2013-01-26 17:00:00,73.0,57.3,30.15,WSW,254,1.0,1.0,58,0.00,,,0.00,Wunderground v.1.15,2013-01-26 22:00:00,
2013-01-26 17:05:00,72.7,57.5,30.14,West,267,0.0,5.0,59,0.00,,,0.00,Wunderground v.1.15,2013-01-26 22:05:00,
2013-01-26 17:10:00,72.5,57.4,30.14,West,267,0.0,5.0,59,0.00,,,0.00,Wunderground v.1.15,2013-01-26 22:10:00,
2013-01-26 19:02:00,64.5,54.9,30.17,West,265,0.0,5.0,71,0.00,,,0.00,Wunderground v.1.15,2013-01-27 00:02:00,
2013-01-26 19:10:00,63.9,55.4,30.17,West,265,0.0,5.0,74,0.00,,,0.00,Wunderground v.1.15,2013-01-27 00:10:00,
2013-01-26 19:15:00,63.5,55.1,30.18,West,265,0.0,5.0,74,0.00,,,0.00,Wunderground v.1.15,2013-01-27 00:15:00,
2013-01-26 19:20:00,63.0,55.7,30.17,West,265,0.0,0.0,77,0.00,,,0.00,Wunderground v.1.15,2013-01-27 00:20:00,
2013-01-26 19:25:00,62.7,55.7,30.18,WSW,258,0.0,0.0,78,0.00,,,0.00,Wunderground v.1.15,2013-01-27 00:25:00,
2013-01-26 19:30:00,62.6,56.0,30.18,WSW,258,0.0,0.0,79,0.00,,,0.00,Wunderground v.1.15,2013-01-27 00:30:00,
2013-01-26 19:35:00,62.4,55.4,30.18,WSW,258,0.0,0.0,78,0.00,,,0.00,Wunderground v.1.15,2013-01-27 00:35:00,
2013-01-26 19:40:00,62.2,55.6,30.18,WSW,258,0.0,0.0,79,0.00,,,0.00,Wunderground v.1.15,2013-01-27 00:40:00,
2013-01-26 19:45:00,62.0,55.4,30.18,WSW,258,0.0,0.0,79,0.00,,,0.00,Wunderground v.1.15,2013-01-27 00:45:00,
2013-01-26 19:50:00,61.8,55.6,30.18,WSW,258,0.0,0.0,80,0.00,,,0.00,Wunderground v.1.15,2013-01-27 00:50:00,
2013-01-26 20:00:00,61.2,55.0,30.18,WSW,258,0.0,0.0,80,0.00,,,0.00,Wunderground v.1.15,2013-01-27 01:00:00,
2013-01-26 20:05:00,60.9,55.0,30.18,WSW,258,0.0,0.0,81,0.00,,,0.00,Wunderground v.1.15,2013-01-27 01:05:00,
2013-01-26 20:10:00,60.6,55.1,30.18,WSW,258,0.0,0.0,82,0.00,,,0.00,Wunderground v.1.15,2013-01-27 01:10:00,
2013-01-26 20:15:00,60.3,54.8,30.18,WSW,258,0.0,0.0,82,0.00,,,0.00,Wunderground v.1.15,2013-01-27 01:15:00,
2013-01-26 20:20:00,60.0,54.8,30.18,WSW,258,0.0,0.0,83,0.00,,,0.00,Wunderground v.1.15,2013-01-27 01:20:00,
2013-01-26 20:25:00,59.7,54.9,30.18,WSW,258,0.0,0.0,84,0.00,,,0.00,Wunderground v.1.15,2013-01-27 01:25:00,
2013-01-26 20:30:00,59.5,55.0,30.18,WSW,258,0.0,0.0,85,0.00,,,0.00,Wunderground v.1.15,2013-01-27 01:30:00,
2013-01-26 20:40:00,59.1,54.6,30.18,WSW,258,0.0,0.0,85,0.00,,,0.00,Wunderground v.1.15,2013-01-27 01:40:00,
2013-01-26 20:45:00,58.9,54.7,30.18,WSW,258,0.0,0.0,86,0.00,,,0.00,Wunderground v.1.15,2013-01-27 01:45:00,
2013-01-26 20:50:00,58.7,54.5,30.18,WSW,258,0.0,0.0,86,0.00,,,0.00,Wunderground v.1.15,2013-01-27 01:50:00,
2013-01-26 20:55:00,58.6,54.7,30.18,WSW,258,0.0,0.0,87,0.00,,,0.00,Wunderground v.1.15,2013-01-27 01:55:00,
2013-01-26 21:00:00,58.6,54.7,30.18,WSW,258,0.0,0.0,87,0.00,,,0.00,Wunderground v.1.15,2013-01-27 02:00:00,